Location: Martinez
(33.5170°N, 82.0760°W)
Time: 20:22:15
(UTC-04:00)

Hubble Space Telescope - Visible Passes

Search period start: 26 June 2016 00:00
Search period end: 06 July 2016 00:00
Orbit: 539 x 543 km, 28.5° (Epoch: 26 June)

Date Brightness Start Highest point End Pass type
(mag) Time Alt. Az. Time Alt. Az. Time Alt. Az.
26 Jun 2.3 04:58:17 19° S 04:58:17 19° S 05:00:52 10° SSE visible
27 Jun 3.0 04:50:10 12° SSE 04:50:10 12° SSE 04:50:40 10° SSE visible
28 Jun 2.6 21:43:03 10° S 21:45:05 14° SSE 21:45:05 14° SSE visible
29 Jun 2.4 21:32:40 10° SSW 21:35:22 17° SSE 21:36:49 14° SE visible
30 Jun 2.2 21:22:30 10° SSW 21:25:34 20° SSE 21:28:17 12° ESE visible
30 Jun 2.8 23:02:34 10° WSW 23:03:43 17° SW 23:03:43 17° SW visible
01 Jul 2.0 21:12:27 10° SW 21:15:48 24° SSE 21:19:10 10° ESE visible
01 Jul 2.2 22:52:48 10° WSW 22:54:58 26° SW 22:54:58 26° SW visible
02 Jul 1.6 22:43:03 10° WSW 22:46:02 35° SSW 22:46:02 35° SSW visible
03 Jul 1.3 22:33:19 10° WSW 22:36:56 40° SSW 22:36:56 40° SSW visible
04 Jul 1.3 22:23:37 10° WSW 22:27:30 40° S 22:27:45 39° S visible
05 Jul 1.4 22:13:55 10° WSW 22:17:45 37° S 22:18:30 34° SSE visible
